Location: Benque
(43.2594°N, 0.9178°E)
Time: 17:25:33
(UTC+00:00)

Meteor 1-21 Rocket - Pass Details

Date: 24 January 2020
Orbit: 834 x 906 km, 81.2° (Epoch: 26 February)

Event Time Altitude Azimuth Distance (km) Brightness Sun altitude
Rises 17:42:06 0° 182° (S) 3,385 7.6 -8.4°
Reaches altitude 10° 17:44:29 10° 180° (S) 2,462 6.9 -8.9°
Maximum altitude 17:50:02 72° 97° (E) 900 4.2 -9.8°
Drops below altitude 10° 17:55:45 10° 14° (NNE) 2,525 6.4 -10.8°
Sets 17:58:13 0° 13° (NNE) 3,479 7.1 -11.2°
